Location: Zerfal�u
(39.9586°N, 8.7089°E)
Time: 08:35:26
(UTC+00:00)

Daily predictions for brighter satellites

Satellite Brightness Start Highest point End
(mag) Time Altitude Azimuth Time Altitude Azimuth Time Altitude Azimuth
Aureole 1 Rocket 3.7 19:12:27 10° NNW 19:17:12 82° ENE 19:23:32 10° SSE
CZ-2C R/B 3.8 19:15:29 10° NNE 19:19:57 59° ESE 19:24:27 10° S
Resurs 1-3 4.1 19:16:06 10° SE 19:20:16 45° ENE 19:24:27 10° N
MetOp-A 4.3 19:15:34 10° SSE 19:20:50 64° ENE 19:26:09 10° N
MOS 1 4.5 19:16:10 10° SSE 19:21:51 82° WSW 19:27:35 10° NNW
STARLINK-1241 4.4 19:17:55 10° WSW 19:21:59 58° NW 19:26:06 10° NE
MONITOR-E 3.9 19:19:38 10° S 19:22:09 68° WSW 19:24:42 10° NNW
Cosmos 676 Rocket 4.2 19:17:02 10° N 19:22:14 57° ENE 19:27:25 10° SSE
Cosmos 1634 Rocket 4.3 19:17:14 10° N 19:23:24 52° E 19:29:33 10° SSE
STARLINK-1088 3.9 19:19:52 10° NW 19:23:58 64° SW 19:28:03 10° SE
Cosmos 1356 3.7 19:23:20 10° NNW 19:26:47 71° W 19:30:12 10° S
Cosmos 2056 Rocket 4.3 19:23:26 10° SSW 19:28:26 56° WNW 19:33:29 10° N
STARLINK-1115 4.0 19:24:51 10° WNW 19:28:55 57° SW 19:32:59 10° SE
Aureole 2 Rocket 4.0 19:28:12 10° SE 19:30:02 15° E 19:31:51 10° ENE
Meteor 1-4 Rocket 2.6 19:28:33 10° SSW 19:31:59 79° W 19:35:28 10° N
Cosmos 1437 Rocket 4.1 19:29:15 10° SE 19:32:06 20° E 19:34:58 10° NE
H-2A ROCKET BODY 4.4 19:29:00 10° SSE 19:32:42 14° ESE 19:39:25 10° E
STARLINK-1076 4.2 19:29:51 10° WNW 19:33:52 52° SW 19:37:53 10° SSE
USA 186 3.6 19:33:37 10° SSW 19:35:44 23° W 19:37:59 10° NW
Lacrosse 5 2.2 19:33:18 10° NW 19:38:17 56° NE 19:42:55 12° ESE
STARLINK-1092 4.3 19:34:52 10° WNW 19:38:51 47° SW 19:42:43 11° SSE
STARLINK-1100 4.5 19:37:09 10° NW 19:41:07 42° NNE 19:44:56 11° ESE
ISS -3.0 19:37:53 10° NW 19:41:08 44° NNE 19:44:06 12° ESE
COSMOS 2406 3.5 19:37:44 10° NNW 19:43:29 68° WSW 19:49:09 10° SSE
STARLINK-1080 4.5 19:39:53 10° WNW 19:43:48 42° SW 19:47:29 11° SSE
ARGOS 4.4 19:38:56 10° SSW 19:43:58 41° W 19:49:04 10° NNW
Cosmos 1975 3.2 19:40:06 10° NNW 19:44:07 68° W 19:48:04 10° S
CZ-2C R/B 2.9 19:39:29 10° NNE 19:45:08 83° WNW 19:50:45 10° SSW
Meteor 2-4 Rocket 3.6 19:40:07 10° S 19:45:28 81° E 19:50:51 10° NNE
STARLINK-1083 4.3 19:42:08 10° NW 19:46:08 45° NNE 19:49:44 12° ESE
NOSS 2-2 (E) 3.8 19:44:13 10° S 19:47:23 31° ESE 19:50:42 10° NE
EXPRESS MD2 2.7 19:46:10 10° SW 19:48:42 84° SSE 19:53:04 10° ENE
STARLINK-1125 4.2 19:47:06 10° NW 19:51:08 49° NE 19:54:31 14° ESE
Cosmos 2297 4.1 19:46:46 10° S 19:52:02 42° ESE 19:57:23 10° NE
Cosmos 1943 Rocket 3.6 19:50:21 14° SE 19:52:42 17° E 19:56:15 10° ENE
Cosmos 1833 Rocket 2.7 19:49:19 10° NNW 19:54:58 87° WSW 20:00:09 12° SSE
STARLINK-1109 4.1 19:52:03 10° NW 19:56:08 54° NE 19:59:18 16° ESE
Cosmos 1452 Rocket 3.6 19:53:26 10° SSW 19:58:42 87° WNW 20:04:02 10° NNE
Cosmos 332 Rocket 3.8 19:54:09 10° S 19:59:01 74° ESE 20:03:56 10° NNE
BREEZE-M DEB 2.1 19:57:42 10° SW 19:59:44 42° SE 20:02:45 10° ENE
STARLINK-1091 3.9 19:56:59 10° NW 20:01:06 58° NE 20:04:04 18° ESE
Cosmos 2082 Rocket 2.3 19:55:55 10° NNW 20:01:38 66° ENE 20:06:02 17° SE
Intercosmos 24 3.8 20:00:56 10° N 20:04:27 58° E 20:07:17 18° SSE
Cosmos 1461 2.8 20:01:28 10° SSW 20:05:33 89° SE 20:09:52 10° NNE
STARLINK-1072 3.8 20:01:59 10° NW 20:06:06 64° NE 20:08:52 20° ESE
Okean 3 4.0 20:03:19 10° SSW 20:07:34 61° W 20:11:50 10° N
Cosmos 2369 Rocket 3.6 20:07:22 16° ESE 20:08:36 17° E 20:12:09 10° ENE
STARLINK-1096 3.7 20:06:57 10° NW 20:11:05 70° NE 20:13:39 22° ESE
NOSS 2-2 (C) 3.3 20:08:30 10° SSW 20:11:55 46° ESE 20:15:29 10° NE
SAR-Lupe-2 3.9 20:09:43 10° NNE 20:13:11 45° E 20:15:09 22° SSE
ASTRO E2 3.9 20:11:50 10° SW 20:15:01 23° S 20:15:41 22° SSE
ATLAS 2AS CENTAUR R/B 4.2 20:13:12 17° SE 20:15:21 19° ESE 20:20:34 10° ENE
Cosmos 2221 Rocket 4.3 20:11:01 10° SSW 20:15:26 56° W 20:19:55 10° N
STARLINK-1079 3.6 20:11:55 10° NW 20:16:04 77° NE 20:18:26 25° ESE
SPOT 5 4.3 20:14:18 17° ESE 20:17:09 28° ENE 20:21:37 10° N
Meteor 1-13 Rocket 4.3 20:13:23 10° SSW 20:18:58 81° W 20:24:44 10° N
SL-4 R/B 2.4 20:16:25 10° NW 20:19:10 34° WSW 20:20:30 21° SSW
STARLINK-1116 3.6 20:16:53 10° NW 20:21:02 84° NE 20:23:13 27° SE
ERS-1 Rocket 3.9 20:19:40 21° ESE 20:22:17 34° ENE 20:26:48 10° N
Cosmos 1066 Rocket 4.1 20:22:28 16° S 20:26:40 61° E 20:31:56 10° NNE
USA 245 2.5 20:27:56 41° SE 20:28:47 64° ENE 20:31:27 10° N
STARLINK-1094 3.6 20:26:51 10° NW 20:31:00 81° SW 20:32:47 33° SE
Cosmos 2278 Rocket 4.4 20:27:12 10° WSW 20:31:58 27° NW 20:36:46 10° N
Resurs 01 Rocket 2.6 20:28:14 12° S 20:32:09 42° W 20:36:24 10° NNW
Nadezhda 4 Rocket 4.0 20:28:28 18° S 20:33:03 63° E 20:39:05 10° NNE
GPS 2-04 Rocket1 2.9 20:32:18 10° WSW 20:35:37 38° S 20:35:57 37° S
MetOp-B 4.2 20:32:02 19° S 20:35:54 75° WSW 20:41:17 10° NNW
STARLINK-1117 3.6 20:31:50 10° NW 20:35:58 73° SW 20:37:34 36° SE
Okean 1 Rocket 3.3 20:31:47 10° N 20:36:10 54° E 20:37:53 33° SE
Cosmos 1805 4.3 20:32:52 10° NNE 20:36:21 30° ENE 20:37:07 27° E
Okean 2 Rocket 4.2 20:32:38 10° NNW 20:36:47 41° W 20:40:27 13° SSW
Cosmos 1741 Rocket 4.0 20:31:35 10° NNW 20:36:49 84° WSW 20:39:49 26° SSE
STARLINK-1078 3.7 20:36:49 10° NW 20:40:57 66° SW 20:42:21 38° SSE
Cosmos 2279 Rocket 4.5 20:38:52 10° NNW 20:44:59 58° W 20:50:13 14° SSW
Cosmos 1110 Rocket 4.0 20:40:27 10° SSW 20:45:39 85° WNW 20:50:51 10° NNE
SL-4 R/B 2.5 20:41:16 10° SSW 20:45:45 46° SE 20:50:23 10° ENE
STARLINK-1108 3.8 20:41:49 10° WNW 20:45:54 60° SW 20:47:08 40° SSE
Terra 2.8 20:44:22 27° ESE 20:45:57 34° ENE 20:50:14 10° N
Cosmos 1850 Rocket 4.3 20:41:05 10° NNW 20:46:23 66° WSW 20:49:24 26° S
Spot 2 Rocket 3.6 20:44:04 24° S 20:47:04 71° WSW 20:52:07 10° NNW
ATLAS 3B CENTAUR R/B 3.7 20:34:19 10° WSW 20:47:34 39° S 20:50:57 28° SE
SPOT 1/Viking Rocket 3.5 20:45:17 30° SSE 20:47:56 84° ENE 20:53:06 10° NNW
Cosmos 1842 4.5 20:48:52 26° E 20:48:52 26° E 20:51:55 10° NNE
CARTOSAT-1 3.8 20:47:49 38° SE 20:49:10 55° ENE 20:53:23 10° N
STARLINK-1071 3.9 20:46:49 10° WNW 20:50:52 54° SW 20:51:55 41° S
Abrixas rocket 2.8 20:48:35 10° NW 20:51:24 40° NNE 20:51:50 37° NE
STARLINK-1110 4.0 20:50:38 10° WNW 20:54:38 49° SW 20:55:32 41° S
Aureole 2 4.1 20:57:40 10° NNW 21:00:36 72° W 21:00:36 72° W
STARLINK-1124 4.2 20:56:51 10° WNW 21:00:47 43° SW 21:01:29 40° SSW
Cosmos 1331 Rocket 4.2 20:57:23 10° SSW 21:02:27 67° WNW 21:07:37 10° NNE
STARLINK-1128 4.4 20:59:05 10° NW 21:03:05 44° NNE 21:04:28 32° E
STARLINK-1122 4.3 21:01:52 10° WNW 21:05:44 39° SW 21:06:15 37° SSW
deb Kosmos-1763 4.3 21:02:56 10° NNW 21:06:29 57° WSW 21:06:57 51° SW
STARLINK-1113 4.3 21:04:03 10° NW 21:08:05 48° NE 21:09:15 36° E
COSMOS 2455 4.3 21:09:45 20° E 21:09:45 20° E 21:13:08 10° ENE
Cosmos 1733 3.5 21:05:49 10° N 21:09:31 48° E 21:09:32 48° E
Cosmos 1378 3.3 21:09:41 47° SW 21:10:33 66° W 21:14:15 10° N
STARLINK-1126 4.5 21:06:56 10° WNW 21:10:44 36° SW 21:11:06 35° SW
Cosmos 1302 Rocket 3.9 21:10:14 35° S 21:12:31 77° ESE 21:17:50 10° NNE
STARLINK-1119 4.1 21:09:02 10° NW 21:13:06 52° NE 21:14:04 42° E
Cosmos 1271 Rocket 4.5 21:14:22 20° ENE 21:14:22 20° ENE 21:16:27 10° NE
Cosmos 1242 Rocket 3.9 21:15:26 28° ENE 21:15:26 28° ENE 21:17:50 10° NNE
ISS -1.7 21:15:09 10° W 21:17:02 19° WSW 21:17:02 19° WSW
STARLINK-1114 4.0 21:13:59 10° NW 21:18:04 57° NE 21:18:49 48° ENE
Cosmos 1092 Rocket 3.9 21:15:30 32° S 21:18:33 89° E 21:24:44 10° N
Lacrosse 5 3.4 21:16:56 10° WNW 21:20:55 24° WSW 21:22:07 22° SW
STARLINK-1130 (DARKSAT) 3.8 21:18:57 10° NW 21:23:03 62° NE 21:23:37 55° ENE
CENTAUR R/B 3.8 21:18:11 10° NNW 21:25:59 48° NE 21:31:08 24° ESE
STARLINK-1084 3.7 21:23:55 10° NW 21:28:03 68° NE 21:28:24 64° ENE
ATLAS 3B R/B 4.4 21:23:18 10° NNW 21:28:39 24° NE 21:33:57 11° E
SL-27 R/B 3.3 21:26:31 10° N 21:29:28 42° NE 21:29:28 42° NE
NOSS 3-2 (C) 4.5 21:23:48 10° NNW 21:31:16 55° NE 21:35:37 29° ESE
Cosmos 1766 3.5 21:28:34 10° NNW 21:32:31 61° W 21:32:47 59° WSW
Cosmos 1627 Rocket 4.5 21:30:05 38° S 21:32:43 89° E 21:39:08 10° N
STARLINK-1098 3.6 21:28:53 10° NW 21:33:02 75° NE 21:33:11 73° ENE
Cosmos 1943 Rocket 2.6 21:31:46 18° SW 21:35:52 60° WNW 21:41:24 10° NNE
Cosmos 1992 Rocket 4.3 21:36:08 47° ESE 21:36:08 47° ESE 21:41:06 10° NNE
NOSS 3-4 (A) 3.4 21:36:32 51° SSE 21:37:23 55° ESE 21:43:24 10° NE
NOSS 3-4 (C) 3.4 21:36:41 50° SSE 21:37:29 55° ESE 21:43:30 10° NE
STARLINK-1123 3.5 21:33:50 10° NW 21:37:56 81° NNE 21:37:56 81° NNE
Cosmos 1428 Rocket 4.4 21:36:33 43° S 21:38:50 86° E 21:45:09 10° N
Cosmos 1900 4.3 21:35:16 10° NNW 21:40:19 76° WSW 21:41:01 64° S
STARLINK-1097 3.6 21:38:51 10° NW 21:42:45 79° NW 21:42:45 79° NW
Cosmos 2082 Rocket 4.3 21:41:37 10° WNW 21:45:04 17° W 21:47:54 12° SW
SeaSat 1 3.0 21:40:31 10° NE 21:44:35 41° E 21:44:35 41° E
Cosmos 1975 Rocket 3.6 21:44:36 44° WSW 21:45:31 53° W 21:49:51 10° N
STARLINK-1099 3.7 21:43:49 10° NW 21:47:31 69° WNW 21:47:31 69° WNW
Cosmos 292 Rocket 3.8 21:48:20 61° SW 21:49:08 79° WNW 21:54:01 10° NNE
Cosmos 2369 Rocket 2.5 21:49:04 28° SW 21:52:02 63° WNW 21:57:39 10° NNE
STARLINK-1104 3.9 21:48:47 10° NW 21:52:18 60° WNW 21:52:18 60° WNW
SPOT 5 4.1 21:53:31 31° SW 21:55:00 37° W 21:59:55 10° NNW
S3M 4.3 21:51:01 10° N 21:57:02 51° E 21:58:10 45° ESE
STARLINK-1144 4.2 21:53:47 10° NW 21:57:05 52° WNW 21:57:05 52° WNW
ATLAS CENTAUR R/B 2.5 21:59:35 36° ENE 21:59:35 36° ENE 22:02:14 10° NE
Aureole 3 Rocket 4.4 21:54:13 10° N 22:00:53 86° E 22:03:54 45° S
ERS-1 Rocket 4.5 21:59:40 23° WSW 22:01:05 27° W 22:05:18 10° NW
Cosmos 1025 Rocket 3.2 22:02:58 62° NE 22:02:58 62° NE 22:06:39 10° N
STARLINK-1103 4.4 21:58:46 10° NW 22:01:51 45° W 22:01:51 45° W
Cosmos 2026 Rocket 4.5 22:00:23 33° SW 22:03:04 56° W 22:09:19 10° N
Cosmos 1340 Rocket 4.4 21:59:40 10° NNE 22:02:31 27° NE 22:02:31 27° NE
ATLAS 2AS CENTAUR R/B 3.0 22:00:30 27° SSW 22:05:23 90° WNW 22:13:25 10° NE
Cosmos 1656 Rocket 3.5 22:04:50 67° S 22:05:37 85° ESE 22:11:14 10° NNE
Thor Agena Rocket 3.4 22:01:27 10° NNE 22:06:47 82° ESE 22:07:12 75° SSE
Cosmos 1553 Rocket 3.9 22:04:15 10° N 22:10:34 89° E 22:11:43 62° S
BREEZE-M DEB (TANK) 4.1 21:59:27 10° WNW 22:10:37 59° NNE 22:11:56 42° ENE
Cosmos 1953 3.5 22:07:48 10° N 22:10:41 36° NE 22:10:41 36° NE
NOSS 3-2 (A) 4.2 22:04:58 10° NW 22:12:40 66° WSW 22:15:11 47° S
Cosmos 1470 3.5 22:08:51 10° NNW 22:11:51 50° NNW 22:11:51 50° NNW
Cosmos 1655 Rocket 3.9 22:15:02 63° SSE 22:16:04 81° E 22:22:20 10° N
Cosmos 968 Rocket 3.3 22:12:18 10° NNW 22:17:27 83° WSW 22:17:31 83° SW
Cosmos 1455 Rocket 4.1 22:15:34 10° NNW 22:19:25 36° W 22:19:25 36° W
ATLAS 5 CENTAUR R/B 2.7 22:14:09 10° SW 22:21:46 44° N 22:23:37 10° NNE
Terra 3.4 22:23:15 24° WSW 22:23:43 24° W 22:27:35 10° NW
USA 238 DEB 4.1 22:17:19 10° NW 22:24:21 54° WSW 22:25:51 47° SSW
USA 238 4.1 22:17:24 10° NW 22:24:29 55° WSW 22:25:58 48° SSW
SL-4 R/B 3.6 22:21:03 10° W 22:25:35 41° NNW 22:30:10 10° NE
Cosmos 1758 4.2 22:22:13 10° NNW 22:25:25 47° NW 22:25:25 47° NW
In-Cosmos 22 4.0 22:30:05 76° E 22:30:05 76° E 22:35:17 10° NNE
Cosmos 2266 Rocket 3.7 22:33:43 71° SSE 22:34:21 81° E 22:40:25 10° N
Cosmos 1503 Rocket 4.0 22:32:18 10° NNW 22:37:35 77° W 22:37:35 77° W
Meteor 2-8 Rocket 4.4 22:37:16 10° NNW 22:43:22 68° W 22:44:07 62° SW
Cosmos 1674 4.3 22:48:20 31° NNE 22:48:20 31° NNE 22:50:28 10° NNE
Meteor 2-15 Rocket 4.5 22:44:13 10° N 22:50:19 65° E 22:50:55 62° ESE
Spot 4 4.4 22:53:29 49° W 22:53:29 49° W 22:57:45 10° NNW
COSMOS 2455 3.1 22:52:50 48° WSW 22:54:17 62° WNW 23:00:16 10° NNE
Cosmos 1354 Rocket 4.3 22:51:43 10° NNW 22:56:35 57° W 22:56:35 57° W
USA 215 3.9 22:52:57 22° E 22:57:06 52° NE 23:03:24 10° NW
Cosmos 883 Rocket 4.3 22:52:17 10° N 22:58:27 86° W 22:58:57 76° S
Helios 1A 4.0 23:01:35 42° NE 23:01:35 42° NE 23:04:47 10° N
Cosmos 2297 Rocket 4.2 22:59:53 10° N 23:04:07 21° NE 23:07:00 15° E
ALOS 2 3.3 23:07:47 51° NW 23:07:47 51° NW 23:11:12 10° NNW
Cosmos 1726 4.1 23:05:26 10° NNW 23:07:20 25° NW 23:07:20 25° NW
Timation 2 Rocket 4.2 23:05:41 10° NNW 23:11:52 60° ENE 23:12:55 52° ESE
Cosmos 2058 Rocket 4.2 23:08:27 10° N 23:11:58 39° NE 23:11:58 39° NE
Meteor 2-5 Rocket 3.6 23:14:12 81° E 23:14:12 81° E 23:19:45 10° NNE
CENTAUR R/B 3.5 23:08:59 10° NW 23:16:54 49° WSW 23:18:17 45° SW
Cosmos 1867 4.2 23:14:25 10° NW 23:18:45 44° W 23:18:45 44° W
ATLAS 3B R/B 2.6 23:13:15 10° NW 23:20:07 84° WSW 23:21:10 67° SSE
Meteor 2-21 4.3 23:20:59 74° SE 23:21:24 78° E 23:27:36 10° N
Cosmos 2098 Rocket 4.4 23:20:08 55° SW 23:21:36 68° W 23:29:04 10° N
SeaSat 1 4.2 23:18:29 10° N 23:22:29 26° NW 23:24:20 20° W
Cosmos 1606 Rocket 4.4 23:18:25 10° NNW 23:21:36 47° NNW 23:21:36 47° NNW
RESURS DK-1 3.6 23:29:48 39° NNW 23:29:48 39° NNW 23:32:56 10° NNE
ATLAS CENTAUR R/B 4.3 23:28:04 10° N 23:29:49 15° NE 23:32:21 10° E
Cosmos 1697 Rocket 4.3 23:32:47 22° E 23:32:47 22° E 23:36:44 10° NE
Cosmos 2084 4.4 23:33:36 45° NNW 23:33:36 45° NNW 23:37:32 10° NNE
Cosmos 1626 3.8 23:36:00 32° N 23:36:00 32° N 23:38:07 10° N
BREEZE-M R/B 3.8 23:31:45 30° WSW 23:35:24 70° NNW 23:39:27 10° NE
Cosmos 2315 Rocket 4.2 23:30:33 10° NNW 23:36:33 53° W 23:36:59 52° WSW
Okean 1-7 Rocket 4.2 23:37:39 56° N 23:37:39 56° N 23:41:17 10° N
ATLAS CENTAUR R/B 3.9 23:35:42 14° WNW 23:37:15 17° NW 23:40:00 10° N
Nadezhda 2 Rocket 4.4 23:39:44 65° WSW 23:40:16 68° W 23:46:24 10° N
Cosmos 2227 Rocket 3.5 23:36:10 10° N 23:41:20 34° ENE 23:43:30 26° E
CZ-4 R/B 4.1 23:39:44 10° NNE 23:43:50 64° NE 23:43:50 64° NE
Meteor 2-21 Rocket 4.3 23:50:06 73° SW 23:50:39 81° W 23:56:52 10° N
Meteor 2-14 Rocket 4.5 23:52:47 61° WSW 23:53:22 64° W 23:59:28 10° N
